Weather History for KEEN - December, 2012

Change the Weather History Date:

Monday, December 10, 2012

  Actual Average Record
Temperature  
Mean Temperature 40 °F -  
Max Temperature 46 °F 38 °F 61 °F (1946)
Min Temperature 35 °F 19 °F -14 °F (1949)
Degree Days  
Heating Degree Days 24    
Moisture  
Dew Point 38 °F    
Average Humidity 92    
Maximum Humidity 100    
Minimum Humidity 81    
Precipitation  
Precipitation 0.05 in - - ()
Sea Level Pressure  
Sea Level Pressure 29.73 in    
Wind  
Wind Speed 1 mph (NNW)    
Max Wind Speed 7 mph    
Max Gust Speed -    
Visibility 3 miles    
Events      
Averages and records for this station are not official NWS values.
T = Trace of Precipitation, MM = Missing Value Source: NWS Daily Summary

Daily Weather History Graph

Daily Weather History Graph

Search for Another Location

Airport or City:

Trip Planner

Search our weather history database for the weather conditions in past years. The results will help you decide how hot, cold, wet, or windy it might be!

Date:

Astronomy

Dec. 10, 2012 Rise Set
Actual Time 7:09 AM EST 4:14 PM EST
Civil Twilight 6:37 AM EST 4:46 PM EST
Nautical Twilight 6:01 AM EST 5:22 PM EST
Astronomical Twilight 5:27 AM EST 5:56 PM EST
Moon 3:46 AM EST (12/10) 2:04 PM EST (12/10)
Length of Visible Light 10h 09m
Length of Day
9h 05m
Waning Crescent, 10% of the Moon is Illuminated
Dec 10
Waning Crescent
Dec 13
New
Dec 20
First Quarter
Dec 28
Full
Jan 4
Last Quarter

Hourly Weather History & Observations

Time (EST) Temp. Windchill Dew Point Humidity Pressure Visibility Wind Dir Wind Speed Gust Speed Precip Events Conditions
12:15 AM 37.4 °F - 33.8 °F 87% 30.12 in 10.0 mi Calm Calm - 0.01 in   Overcast
12:55 AM 37.4 °F - 33.8 °F 87% 30.09 in 10.0 mi Calm Calm - 0.03 in   Overcast
1:15 AM 37.4 °F - 33.8 °F 87% 30.08 in 9.0 mi Calm Calm - 0.01 in   Overcast
1:35 AM 37.4 °F - 35.6 °F 93% 30.07 in 6.0 mi Calm Calm - 0.02 in   Overcast
2:35 AM 37.4 °F - 35.6 °F 93% 30.01 in 5.0 mi Calm Calm - N/A   Overcast
2:55 AM 35.6 °F 31.7 °F 33.8 °F 93% 30.01 in 3.0 mi NNE 4.6 mph - N/A   Overcast
3:15 AM 35.6 °F - 33.8 °F 93% 29.99 in 3.0 mi Calm Calm - N/A   Overcast
4:15 AM 37.4 °F 34.9 °F 35.6 °F 93% 29.96 in 4.0 mi NNE 3.5 mph - N/A   Overcast
4:35 AM 37.4 °F 34.9 °F 35.6 °F 93% 29.95 in 3.0 mi NNE 3.5 mph - N/A   Overcast
4:55 AM 37.4 °F - 35.6 °F 93% 29.92 in 2.5 mi Calm Calm - N/A   Overcast
5:15 AM 37.4 °F - 33.8 °F 87% 29.89 in 3.0 mi Calm Calm - N/A   Overcast
5:35 AM 37.4 °F 34.9 °F 35.6 °F 93% 29.88 in 5.0 mi NNE 3.5 mph - N/A   Overcast
6:15 AM 37.4 °F 34.9 °F 35.6 °F 93% 29.86 in 3.0 mi ENE 3.5 mph - N/A   Overcast
6:35 AM 37.4 °F - 35.6 °F 93% 29.85 in 3.0 mi Calm Calm - N/A   Overcast
6:55 AM 37.4 °F - 35.6 °F 93% 29.84 in 4.0 mi Calm Calm - N/A   Overcast
7:15 AM 37.4 °F - 35.6 °F 93% 29.84 in 3.0 mi Calm Calm - N/A   Overcast
7:35 AM 37.4 °F - 35.6 °F 93% 29.82 in 3.0 mi Calm Calm - N/A   Overcast
8:15 AM 37.4 °F - 35.6 °F 93% 29.81 in 1.5 mi Calm Calm - N/A   Overcast
8:35 AM 37.4 °F - 35.6 °F 93% 29.80 in 1.8 mi Calm Calm - N/A   Overcast
8:55 AM 37.4 °F - 35.6 °F 93% 29.79 in 1.2 mi Calm Calm - N/A   Overcast
9:35 AM 37.4 °F 34.9 °F 37.4 °F 100% 29.77 in 1.0 mi WNW 3.5 mph - N/A   Overcast
10:35 AM 39.2 °F - 37.4 °F 93% 29.74 in 1.2 mi Calm Calm - N/A   Overcast
10:55 AM 39.2 °F 37.0 °F 37.4 °F 93% 29.73 in 2.0 mi SSW 3.5 mph - N/A   Overcast
11:35 AM 41.0 °F 39.0 °F 39.2 °F 93% 29.69 in 1.5 mi SW 3.5 mph - N/A   Overcast
11:55 AM 41.0 °F - 39.2 °F 93% 29.68 in 1.2 mi Calm Calm - N/A   Overcast
12:15 PM 41.0 °F - 39.2 °F 93% 29.66 in 1.2 mi Calm Calm - N/A   Overcast
12:35 PM 42.8 °F - 39.2 °F 87% 29.65 in 2.0 mi Calm Calm - N/A   Overcast
3:55 PM 42.8 °F - 41.0 °F 93% 29.60 in 0.8 mi Calm Calm - N/A   Overcast
4:15 PM 42.8 °F - 41.0 °F 93% 29.58 in 1.5 mi Calm Calm - N/A   Overcast
4:55 PM 42.8 °F - 41.0 °F 93% 29.57 in 0.8 mi Calm Calm - N/A   Overcast
5:15 PM 42.8 °F - 41.0 °F 93% 29.57 in 0.5 mi Calm Calm - N/A   Overcast
5:35 PM 42.8 °F - 41.0 °F 93% 29.56 in 0.2 mi Calm Calm - N/A   Overcast
5:55 PM 42.8 °F - 41.0 °F 93% 29.56 in 0.2 mi Calm Calm - N/A   Overcast
6:55 PM 42.8 °F - 41.0 °F 93% 29.53 in 0.2 mi Calm Calm - N/A   Overcast
7:15 PM 42.8 °F - 41.0 °F 93% 29.52 in 0.2 mi Calm Calm - N/A   Overcast
7:35 PM 42.8 °F - 41.0 °F 93% 29.52 in 0.2 mi Calm Calm - N/A   Overcast
7:55 PM 42.8 °F - 41.0 °F 93% 29.52 in 0.5 mi Calm Calm - N/A   Overcast
8:15 PM 42.8 °F 40.1 °F 41.0 °F 93% 29.51 in 0.8 mi SSW 4.6 mph - N/A   Overcast
8:35 PM 42.8 °F 40.1 °F 41.0 °F 93% 29.50 in 1.0 mi SW 4.6 mph - N/A   Overcast
8:55 PM 42.8 °F - 42.8 °F 100% 29.50 in 1.2 mi Calm Calm - N/A   Overcast
9:15 PM 44.6 °F - 42.8 °F 93% 29.51 in 1.8 mi Calm Calm - N/A   Overcast
9:55 PM 44.6 °F - 42.8 °F 93% 29.50 in 1.2 mi Calm Calm - N/A   Overcast
10:15 PM 44.6 °F 43.1 °F 42.8 °F 93% 29.51 in 3.0 mi South 3.5 mph - N/A   Overcast
10:35 PM 44.6 °F 42.2 °F 42.8 °F 93% 29.53 in 2.5 mi South 4.6 mph - N/A   Overcast
10:55 PM 44.6 °F 40.7 °F 42.8 °F 93% 29.57 in 3.0 mi North 6.9 mph - N/A   Overcast
11:35 PM 46.4 °F 45.2 °F 41.0 °F 81% 29.58 in 10.0 mi NE 3.5 mph - N/A   Overcast
11:55 PM 46.4 °F 44.3 °F 41.0 °F 81% 29.59 in 10.0 mi NNW 4.6 mph - N/A   Overcast